This demonstration page uses our WeatherBlox Daily Observations layout. Learn more.

Left ArrowRight Arrow

39.92423, -83.80882

Hourly Observations for July 10, 2020

Temp ( °F °C ) Dew Point ( °F °C ) Humidity (%) Winds ( mph kmh ) Pressure ( in mb ) Visibility ( mi km ) Precip ( " mm )
12:56 am 00:56 Clear 74 23.3 74 23.3 100 100 N N/A 29.88 1012 10 16 N/A
1:56 am 01:56 Clear 72 22.2 72 22.2 100 100 N N/A 29.88 1012 9 14 N/A
2:56 am 02:56 Clear 73 22.8 73 22.8 100 100 N N/A 29.88 1012 9 14 N/A
3:56 am 03:56 Clear 71 21.7 71 21.7 100 100 S 3 6 29.86 1011 7 11 N/A
4:56 am 04:56 Clear 73 22.8 73 22.8 100 100 S 3 6 29.85 1011 7 11 N/A
5:56 am 05:56 Clear 73 22.8 73 22.8 100 100 S 5 7 29.85 1011 8 13 N/A
6:56 am 06:56 Sunny 74 23.3 74 23.3 100 100 undefined N/A 29.85 1011 7 11 N/A
7:56 am 07:56 Sunny 77 25 74 23.3 90 90 S 8 13 29.85 1011 10 16 N/A
8:56 am 08:56 Sunny 80 26.7 74 23.3 82 82 SSW 7 11 29.85 1011 10 16 N/A
9:56 am 09:56 Sunny 83 28.3 76 24.4 79 79 VRB 6 9 29.84 1011 10 16 N/A
10:56 am 10:56 Mostly Sunny 84 28.9 76 24.4 77 77 SSW 9 15 29.83 1010 10 16 N/A
11:13 am 11:13 Mostly Cloudy with Thunderstorms 86 30 75 24 70 70 SW 12 19 29.79 1009 10 16 N/A
11:28 am 11:28 Mostly Cloudy 86 30 75 24 70 70 SSW 10 17 29.78 1008 10 16 N/A
11:56 am 11:56 Partly Cloudy 87 30.6 76 24.4 70 70 SW 15 24 29.80 1009 10 16 N/A
12:56 pm 12:56 Mostly Cloudy with Nearby Thunderstorms 87 30.6 75 23.9 67 67 SW 15 24 29.78 1008 10 16 N/A
1:20 pm 13:20 Mostly Cloudy 88 31 75 24 66 66 SSW 10 17 29.72 1007 10 16 N/A
1:33 pm 13:33 Mostly Cloudy with Nearby Thunderstorms 88 31 73 23 62 62 W 12 19 29.72 1007 10 16 N/A
1:49 pm 13:49 Mostly Cloudy 86 30 73 23 66 66 WSW 8 13 29.74 1007 10 16 N/A
1:56 pm 13:56 Cloudy with Nearby Thunderstorms 78 25.6 76 24.4 93 93 W 17 28 29.77 1008 5 8 0.02 0.51
2:56 pm 14:56 Mostly Cloudy 84 28.9 75 23.9 74 74 W 15 24 29.76 1008 10 16 0.02 0.51
3:56 pm 15:56 Mostly Cloudy 86 30 70 21.1 59 59 WSW 21 33 29.77 1008 10 16 N/A
4:56 pm 16:56 Mostly Cloudy 85 29.4 68 20 57 57 W 20 31 29.78 1009 10 16 N/A
5:56 pm 17:56 Cloudy 80 26.7 69 20.6 69 69 W 18 30 29.80 1009 10 16 0.00 0.00
6:38 pm 18:38 Cloudy 79 26 70 21 74 74 W 15 24 29.78 1008 10 16 N/A
6:49 pm 18:49 Cloudy 79 26 68 20 70 70 WNW 17 28 29.78 1008 10 16 N/A
6:56 pm 18:56 Cloudy 79 26.1 69 20.6 72 72 WNW 14 22 29.81 1009 10 16 N/A
7:44 pm 19:44 Mostly Cloudy 79 26 70 21 74 74 W 17 28 29.77 1008 10 16 N/A
7:56 pm 19:56 Mostly Cloudy 79 26.1 69 20.6 72 72 WNW 15 24 29.80 1009 10 16 N/A
8:56 pm 20:56 Cloudy 78 25.6 67 19.4 69 69 WNW 13 20 29.81 1010 10 16 N/A
9:56 pm 21:56 Mostly Cloudy 76 24.4 66 18.9 72 72 WNW 12 19 29.82 1010 10 16 N/A
10:56 pm 22:56 Clear 74 23.3 66 18.9 76 76 WNW 13 20 29.83 1010 10 16 N/A
11:56 pm 23:56 Clear 73 22.8 65 18.3 76 76 WNW 10 17 29.83 1010 10 16 N/A

Powered by AerisWeather